Location: Unspecified
(0.0000°N, 0.0000°E)
Time: 02:45:30
(UTC+02:00)

Cosmos 1515 Rocket - Visible Passes

Search period start: 23 October 2017 00:00
Search period end: 01 November 2017 23:00
Orbit: 605 x 632 km, 82.5° (Epoch: 22 October)

Date Brightness Start Highest point End Pass type
(mag) Time Alt. Az. Time Alt. Az. Time Alt. Az.
23 Oct 3.4 20:45:04 10° S 20:49:29 74° E 20:53:50 10° N visible
24 Oct 4.6 21:02:21 10° SSW 21:06:35 46° W 21:10:47 10° NNW visible
25 Oct 6.1 21:20:24 10° SW 21:23:41 21° W 21:26:56 10° NW visible
27 Oct 3.5 20:15:56 10° S 20:20:20 78° E 20:24:41 10° N visible
28 Oct 4.8 20:33:15 10° SSW 20:37:26 44° W 20:41:35 10° NNW visible
29 Oct 6.4 19:51:21 10° SW 19:54:31 20° W 19:57:40 10° NW visible
01 Nov 5.1 19:04:08 10° SSW 19:08:17 42° W 19:12:22 10° NNW visible
